Hourly Data Report for May 16, 2021

MIRAMICHI RCS
NEW BRUNSWICK
Current Station Operator: ECCC - MSC

47°00'34.000" N
65°27'54.000" W
33.00 m
8100989
71744
ACQ

Download Data

Hourly Data (May 2021)
Hourly Data Report for May 16, 2021
TIME
LST
Temp Definition
°C
Dew Point Definition
°C
Rel Hum Definition
%
Precip. Amount Definition
mm

Wind Dir Definition
10's deg

Wind Spd Definition
km/h
Visibility Definition
km
Stn Press Definition
kPa
Hmdx Definition


Wind Chill Definition


Weather Definition


00:00 9.2 2.6 63 LegendMM 8 17   101.82     LegendNANA
01:00 9.5 2.3 61 LegendMM 7 17   101.81     LegendNANA
02:00 9.2 2.3 62 LegendMM 5 13   101.84     LegendNANA
03:00 8.4 5.0 79 LegendMM 6 17   101.85     LegendNANA
04:00 7.1 4.4 83 LegendMM 5 9   101.86     LegendNANA
05:00 6.6 3.9 83 LegendMM 5 11   101.93     LegendNANA
06:00 7.4 4.7 83 LegendMM 4 8   102.02     LegendNANA
07:00 9.1 3.4 68 LegendMM 7 18   102.08     LegendNANA
08:00 9.8 4.7 71 LegendMM 5 17   102.14     LegendNANA
09:00 10.6 4.2 65 LegendMM 5 18   102.17     LegendNANA
10:00 12.3 4.0 57 LegendMM 7 17   102.17     LegendNANA
11:00 14.0 4.0 51 LegendMM 7 18   102.15     LegendNANA
12:00 14.8 3.4 47 LegendMM 5 18   102.14     LegendNANA
13:00 14.9 4.0 48 LegendMM 5 21   102.12     LegendNANA
14:00 14.9 3.5 47 LegendMM 5 23   102.10     LegendNANA
15:00 14.8 4.2 49 LegendMM 5 25   102.07     LegendNANA
16:00 14.0 5.8 58 LegendMM 5 19   102.05     LegendNANA
17:00 14.1 5.7 57 LegendMM 6 17   102.08     LegendNANA
18:00 13.2 5.2 58 LegendMM 6 16   102.11     LegendNANA
19:00 12.6 2.7 51 LegendMM 8 20   102.14     LegendNANA
20:00 10.2 3.2 61 LegendMM 8 17   102.17     LegendNANA
21:00 8.8 3.4 69 LegendMM 6 12   102.20     LegendNANA
22:00 8.1 3.5 73 LegendMM 6 12   102.24     LegendNANA
23:00 7.5 3.8 77 LegendMM 4 8   102.22     LegendNANA

Notes on Data Quality.

Legend

  • E = Estimated
  • M = Missing
  • NA = Not Available*
  • [empty] = Indicates an unobserved value
Date modified: